Weather Roundup
Issued by NWS Springfield, MO

Home | Current Version | Previous Version | Text Only | Print | Product List | Glossary On
Versions: 1 2 3 4 5 6 7 8 9 10 11 12 13 14 15 16 17 18 19 20 21 22 23 24 25 26 27 28 29 30 31 32 33 34 35 36 37 38 39 40 41 42 43 44 45 46 47 48 49 50
000
NZUS99 KSGF 241407
HRRSGF

HOURLY WEATHER
NATIONAL WEATHER SERVICE SPRINGFIELD MO
800 AM CST FRI FEB 24 2017

......SGF CWA......

CITY           SKY/WX    TMP DP  RH WIND       PRES   REMARKS
SPRINGFIELD    CLOUDY    44  39  82 W12G25    29.64R
JOPLIN         CLOUDY    41  37  86 W13G24    29.70R
WEST PLAINS    CLOUDY    60  53  77 SW10      29.58R
ROLLA          LGT RAIN  51  48  89 W18       29.53R
OSAGE BEACH    CLOUDY    47  42  83 NW10G21   29.61R
BRANSON        CLOUDY    46  43  87 NW13      29.64R

......SURROUNDING SGF CWA......

CITY           SKY/WX    TMP DP  RH WIND       PRES   REMARKS
CHANUTE        CLOUDY    38  30  73 NW13      29.73R WCI  30
PARSONS        CLOUDY    39  30  70 NW15      29.74R WCI  31
COFFEYVILLE    SUNNY     39  31  72 NW15G24   29.75R WCI  31
EMPORIA        CLOUDY    35  29  78 NW18G30   29.72R WCI  24
GROVE OK       CLOUDY    43  37  81 NW14      29.74R
ROGERS AR      CLOUDY    45  40  82 NW10      29.69R
SILOAM SPRINGS CLOUDY    45  37  76 NW15      29.71R
HARRISON AR    PTSUNNY   50  45  83 NW13      29.63R
NEAR YELLVILLE CLOUDY    61  45  55 NW15      29.57R

......KANSAS AND MISSOURI......

CITY           SKY/WX    TMP DP  RH WIND       PRES   REMARKS
KANSAS CTY INT CLOUDY    37  34  89 W10       29.63R WCI  30
DOWNTOWN KC    CLOUDY    39  34  82 W9        29.64R WCI  33
COLUMBIA       CLOUDY    47  43  86 W22G30    29.55R
SEDALIA        CLOUDY    43  38  82 W17G25    29.61R
ST JOSEPH      CLOUDY    37  36  96 NW13      29.64R WCI  29
ST LOUIS       CLOUDY    63  54  72 S10       29.48R
SPIRIT OF STL  CLOUDY    64  55  72 SW6G18    29.46R
KIRKSVILLE     CLOUDY    39  39 100 NW9       29.53R FOG     WCI  33
WICHITA        CLOUDY    35  25  66 NW17G26   29.80R WCI  25
TOPEKA         CLOUDY    36  36 100 W9        29.69R FOG     WCI  29
OLATHE         CLOUDY    36  35  96 W10       29.65R WCI  28

......TENNESSEE......

CITY           SKY/WX    TMP DP  RH WIND       PRES   REMARKS
MEMPHIS        MOSUNNY   64  57  78 S20G29    29.68F
NASHVILLE      MOSUNNY   67  56  67 S9        29.77R

......ARKANSAS.......

CITY           SKY/WX    TMP DP  RH WIND       PRES   REMARKS
FAYETTEVILLE   CLOUDY    45  42  89 NW12      29.69R
FT SMITH       CLOUDY    51  41  68 NW14      29.69R
LITTLE ROCK    CLOUDY    58  56  93 SW15      29.66R

......OKLAHOMA.......

CITY           SKY/WX    TMP DP  RH WIND       PRES   REMARKS
TULSA          PTSUNNY   41  33  73 NW17      29.77R
PONCA CITY     MOCLDY    38  27  64 NW10G20   29.81R WCI  31
MCALESTER      LGT RAIN  46  36  68 NW18G24   29.77R
OKLAHOMA CITY  PTCLDY    37  28  70 NW20G29   29.82R WCI  27

......IOWA............

CITY           SKY/WX    TMP DP  RH WIND       PRES   REMARKS
DES MOINES     DRIZZLE   35  32  88 N15       29.60R FOG     WCI  25
QUAD CITIES    CLOUDY    42  38  85 NE12      29.44R FOG

......ILLINOIS........

CITY           SKY/WX    TMP DP  RH WIND       PRES   REMARKS
QUINCY         FOG       46  46 100 W12       29.46R VSB<1/4
CHICAGO        CLOUDY    39  37  92 N15       29.49R FOG     WCI  31



USA.gov is the U.S. government's official web portal to all federal, state and local government web resources and services.